Time,TemperatureF,DewpointF,PressureIn,WindDirection,WindDirectionDegrees,WindSpeedMPH,WindSpeedGustMPH,Humidity,HourlyPrecipIn,Conditions,Clouds,dailyrainin,SoftwareType,DateUTC
2013-02-05 00:01:00,22.6,16.5,29.14,NW,315,0.0,0.0,77,0.00,,---,0.00,VWS V14.01,2013-02-05 06:01:00,
2013-02-05 00:06:00,22.6,16.8,29.14,NW,315,0.0,0.0,78,0.00,,---,0.00,VWS V14.01,2013-02-05 06:06:00,
2013-02-05 00:11:00,22.6,16.8,29.14,NW,315,0.0,0.0,78,0.00,,---,0.00,VWS V14.01,2013-02-05 06:11:00,
2013-02-05 00:16:00,22.3,16.5,29.12,NW,315,0.0,0.0,78,0.00,,---,0.00,VWS V14.01,2013-02-05 06:16:00,
2013-02-05 00:21:00,22.1,16.3,29.12,NW,315,1.1,1.1,78,0.00,,---,0.00,VWS V14.01,2013-02-05 06:21:00,
2013-02-05 00:26:00,21.9,16.1,29.12,NW,315,0.0,0.0,78,0.00,,---,0.00,VWS V14.01,2013-02-05 06:26:00,
2013-02-05 00:31:00,21.9,16.1,29.12,NW,315,0.0,0.0,78,0.00,,---,0.00,VWS V14.01,2013-02-05 06:31:00,
2013-02-05 00:36:00,22.1,16.3,29.12,NW,315,0.0,0.0,78,0.00,,---,0.00,VWS V14.01,2013-02-05 06:36:00,
2013-02-05 00:41:00,21.9,16.1,29.12,NW,315,0.0,0.0,78,0.00,,---,0.00,VWS V14.01,2013-02-05 06:41:00,
2013-02-05 00:46:00,21.9,16.1,29.12,NW,315,0.0,0.0,78,0.00,,---,0.00,VWS V14.01,2013-02-05 06:46:00,
2013-02-05 00:51:00,21.9,16.1,29.12,NW,315,0.0,0.0,78,0.00,,---,0.00,VWS V14.01,2013-02-05 06:51:00,
2013-02-05 00:56:00,21.7,15.9,29.12,NW,315,0.0,0.0,78,0.00,,---,0.00,VWS V14.01,2013-02-05 06:56:00,
2013-02-05 01:01:00,21.7,15.9,29.12,NW,315,0.0,0.0,78,0.00,,---,0.00,VWS V14.01,2013-02-05 07:01:00,
2013-02-05 01:06:00,21.7,15.9,29.12,NW,315,0.0,0.0,78,0.00,,---,0.00,VWS V14.01,2013-02-05 07:06:00,
2013-02-05 01:11:00,21.2,15.4,29.12,NW,315,0.0,0.0,78,0.00,,---,0.00,VWS V14.01,2013-02-05 07:11:00,
2013-02-05 01:16:00,21.2,15.7,29.12,NW,315,0.0,0.0,79,0.00,,---,0.00,VWS V14.01,2013-02-05 07:16:00,
2013-02-05 01:21:00,21.2,15.7,29.12,NW,315,0.0,0.0,79,0.00,,---,0.00,VWS V14.01,2013-02-05 07:21:00,
2013-02-05 01:26:00,21.2,15.7,29.12,NW,315,0.0,0.0,79,0.00,,---,0.00,VWS V14.01,2013-02-05 07:26:00,
2013-02-05 01:31:00,21.2,15.7,29.12,NW,315,0.0,0.0,79,0.00,,---,0.00,VWS V14.01,2013-02-05 07:31:00,
2013-02-05 01:36:00,21.2,15.7,29.12,NW,315,0.0,0.0,79,0.00,,---,0.00,VWS V14.01,2013-02-05 07:36:00,
2013-02-05 01:41:00,21.2,15.7,29.12,NW,315,0.0,0.0,79,0.00,,---,0.00,VWS V14.01,2013-02-05 07:41:00,
2013-02-05 01:47:00,21.6,16.1,29.12,NW,315,0.0,0.0,79,0.00,,---,0.00,VWS V14.01,2013-02-05 07:47:00,
2013-02-05 01:52:00,21.2,16.0,29.12,NW,315,0.0,0.0,80,0.00,,---,0.00,VWS V14.01,2013-02-05 07:52:00,
2013-02-05 01:57:00,21.4,16.2,29.12,NW,315,0.0,0.0,80,0.00,,---,0.00,VWS V14.01,2013-02-05 07:57:00,
2013-02-05 02:02:00,21.4,16.2,29.12,NW,315,0.0,0.0,80,0.00,,---,0.00,VWS V14.01,2013-02-05 08:02:00,
2013-02-05 02:07:00,21.6,16.4,29.12,NW,315,0.0,0.0,80,0.00,,---,0.00,VWS V14.01,2013-02-05 08:07:00,
2013-02-05 02:12:00,21.4,16.2,29.12,NW,315,0.0,0.0,80,0.00,,---,0.00,VWS V14.01,2013-02-05 08:12:00,
2013-02-05 02:17:00,21.6,16.4,29.12,NW,315,0.0,0.0,80,0.00,,---,0.00,VWS V14.01,2013-02-05 08:17:00,
2013-02-05 02:22:00,21.6,16.4,29.12,NW,315,0.0,0.0,80,0.00,,---,0.00,VWS V14.01,2013-02-05 08:22:00,
2013-02-05 02:27:00,21.6,16.4,29.12,NW,315,0.0,0.0,80,0.00,,---,0.00,VWS V14.01,2013-02-05 08:27:00,
2013-02-05 02:32:00,21.6,16.4,29.12,NW,315,0.0,0.0,80,0.00,,---,0.00,VWS V14.01,2013-02-05 08:32:00,
2013-02-05 02:37:00,21.6,16.4,29.12,NW,315,0.0,0.0,80,0.00,,---,0.00,VWS V14.01,2013-02-05 08:37:00,
2013-02-05 02:42:00,21.6,16.4,29.12,NW,315,0.0,0.0,80,0.00,,---,0.00,VWS V14.01,2013-02-05 08:42:00,
2013-02-05 02:47:00,21.6,16.4,29.12,NW,315,0.0,0.0,80,0.00,,---,0.00,VWS V14.01,2013-02-05 08:47:00,
2013-02-05 02:52:00,21.6,16.4,29.12,NW,315,1.3,1.3,80,0.00,,---,0.00,VWS V14.01,2013-02-05 08:52:00,
2013-02-05 02:57:00,21.6,16.4,29.12,NW,315,0.9,0.9,80,0.00,,---,0.00,VWS V14.01,2013-02-05 08:57:00,
2013-02-05 03:02:00,21.6,16.4,29.12,NW,315,1.3,1.3,80,0.00,,---,0.00,VWS V14.01,2013-02-05 09:02:00,
2013-02-05 03:07:00,21.7,16.5,29.12,NW,315,2.0,2.0,80,0.00,,---,0.00,VWS V14.01,2013-02-05 09:07:00,
2013-02-05 03:12:00,21.7,16.5,29.09,NW,315,1.3,1.3,80,0.00,,---,0.00,VWS V14.01,2013-02-05 09:12:00,
2013-02-05 03:17:00,21.9,17.0,29.09,NW,315,0.0,1.1,81,0.00,,---,0.00,VWS V14.01,2013-02-05 09:17:00,
2013-02-05 03:22:00,21.7,16.8,29.09,NW,315,0.0,0.0,81,0.00,,---,0.00,VWS V14.01,2013-02-05 09:22:00,
2013-02-05 03:27:00,21.9,17.0,29.09,WNW,292,1.6,1.6,81,0.00,,---,0.00,VWS V14.01,2013-02-05 09:27:00,
2013-02-05 03:33:00,22.1,17.2,29.09,SE,135,1.3,1.6,81,0.00,,---,0.00,VWS V14.01,2013-02-05 09:33:00,
2013-02-05 03:38:00,22.1,17.2,29.09,SE,135,1.6,1.6,81,0.00,,---,0.00,VWS V14.01,2013-02-05 09:38:00,
2013-02-05 03:43:00,22.3,17.4,29.09,SE,135,2.0,2.0,81,0.00,,---,0.00,VWS V14.01,2013-02-05 09:43:00,
2013-02-05 03:48:00,22.5,17.5,29.09,South,180,0.0,2.2,81,0.00,,---,0.00,VWS V14.01,2013-02-05 09:48:00,
2013-02-05 03:53:00,22.5,17.5,29.09,South,180,0.0,0.0,81,0.00,,---,0.00,VWS V14.01,2013-02-05 09:53:00,
2013-02-05 03:58:00,22.6,17.7,29.09,South,180,1.1,1.1,81,0.00,,---,0.00,VWS V14.01,2013-02-05 09:58:00,
2013-02-05 04:03:00,22.6,17.7,29.09,South,180,2.7,2.7,81,0.00,,---,0.00,VWS V14.01,2013-02-05 10:03:00,
2013-02-05 04:08:00,22.6,17.7,29.09,SSE,158,1.6,2.0,81,0.00,,---,0.00,VWS V14.01,2013-02-05 10:08:00,
2013-02-05 04:13:00,23.0,18.0,29.09,SSW,202,1.6,1.6,81,0.00,,---,0.00,VWS V14.01,2013-02-05 10:13:00,
2013-02-05 04:18:00,23.0,18.0,29.09,SSW,202,0.0,0.0,81,0.00,,---,0.00,VWS V14.01,2013-02-05 10:18:00,
2013-02-05 04:23:00,23.2,18.2,29.09,SSW,202,0.0,0.0,81,0.00,,---,0.00,VWS V14.01,2013-02-05 10:23:00,
2013-02-05 04:28:00,23.2,18.2,29.09,SSW,202,1.3,1.3,81,0.00,,---,0.00,VWS V14.01,2013-02-05 10:28:00,
2013-02-05 04:33:00,23.4,18.4,29.09,SSW,202,1.1,1.1,81,0.00,,---,0.00,VWS V14.01,2013-02-05 10:33:00,
2013-02-05 04:39:00,23.5,18.6,29.09,SW,225,2.5,2.5,81,0.00,,---,0.00,VWS V14.01,2013-02-05 10:39:00,
2013-02-05 04:44:00,23.5,18.6,29.09,SW,225,0.0,0.0,81,0.00,,---,0.00,VWS V14.01,2013-02-05 10:44:00,
2013-02-05 04:49:00,23.5,18.6,29.09,South,180,0.9,2.5,81,0.00,,---,0.00,VWS V14.01,2013-02-05 10:49:00,
2013-02-05 04:54:00,23.7,18.8,29.09,South,180,1.1,1.3,81,0.00,,---,0.00,VWS V14.01,2013-02-05 10:54:00,
2013-02-05 04:59:00,23.7,18.8,29.09,SW,225,2.7,2.7,81,0.00,,---,0.00,VWS V14.01,2013-02-05 10:59:00,
2013-02-05 05:04:00,23.7,18.8,29.09,SSW,202,2.0,2.0,81,0.00,,---,0.00,VWS V14.01,2013-02-05 11:04:00,
2013-02-05 05:09:00,23.7,18.8,29.09,SSW,202,1.6,1.6,81,0.00,,---,0.00,VWS V14.01,2013-02-05 11:09:00,
2013-02-05 05:14:00,23.7,18.8,29.09,SW,225,0.0,1.3,81,0.00,,---,0.00,VWS V14.01,2013-02-05 11:14:00,
2013-02-05 05:19:00,23.9,18.9,29.09,South,180,0.0,1.6,81,0.00,,---,0.00,VWS V14.01,2013-02-05 11:19:00,
2013-02-05 05:24:00,23.9,18.9,29.09,SSW,202,0.9,2.2,81,0.00,,---,0.00,VWS V14.01,2013-02-05 11:24:00,
2013-02-05 05:29:00,23.9,18.9,29.09,South,180,2.9,2.9,81,0.00,,---,0.00,VWS V14.01,2013-02-05 11:29:00,
2013-02-05 05:34:00,24.1,19.1,29.09,SE,135,0.9,2.0,81,0.00,,---,0.00,VWS V14.01,2013-02-05 11:34:00,
2013-02-05 05:39:00,24.1,19.1,29.09,SE,135,0.9,0.9,81,0.00,,---,0.00,VWS V14.01,2013-02-05 11:39:00,
2013-02-05 05:44:00,24.3,19.6,29.09,South,180,0.0,0.0,82,0.00,,---,0.00,VWS V14.01,2013-02-05 11:44:00,
2013-02-05 05:49:00,24.3,19.6,29.06,South,180,2.0,2.0,82,0.00,,---,0.00,VWS V14.01,2013-02-05 11:49:00,
2013-02-05 05:54:00,24.4,19.7,29.06,SSE,158,2.5,2.5,82,0.00,,---,0.00,VWS V14.01,2013-02-05 11:54:00,
2013-02-05 05:59:00,24.4,19.7,29.06,SSE,158,2.5,2.5,82,0.00,,---,0.00,VWS V14.01,2013-02-05 11:59:00,
2013-02-05 06:04:00,24.6,19.9,29.06,SW,225,2.2,2.2,82,0.00,,---,0.00,VWS V14.01,2013-02-05 12:04:00,
2013-02-05 06:09:00,24.6,19.9,29.06,SW,225,3.1,3.1,82,0.00,,---,0.00,VWS V14.01,2013-02-05 12:09:00,
2013-02-05 06:14:00,24.6,19.9,29.06,SSW,202,2.7,2.7,82,0.00,,---,0.00,VWS V14.01,2013-02-05 12:14:00,
2013-02-05 06:19:00,24.6,19.9,29.06,SSW,202,3.1,4.0,82,0.00,,---,0.00,VWS V14.01,2013-02-05 12:19:00,
2013-02-05 06:24:00,24.6,19.9,29.06,SSW,202,2.0,2.0,82,0.00,,---,0.00,VWS V14.01,2013-02-05 12:24:00,
2013-02-05 06:29:00,24.8,20.1,29.06,SSW,202,1.3,1.3,82,0.00,,---,0.00,VWS V14.01,2013-02-05 12:29:00,
2013-02-05 06:34:00,24.8,20.1,29.06,South,180,3.1,3.1,82,0.00,,---,0.00,VWS V14.01,2013-02-05 12:34:00,
2013-02-05 06:39:00,25.2,20.5,29.06,SW,225,1.1,1.1,82,0.00,,---,0.00,VWS V14.01,2013-02-05 12:39:00,
2013-02-05 06:45:00,25.3,20.6,29.06,South,180,2.7,3.4,82,0.00,,---,0.00,VWS V14.01,2013-02-05 12:45:00,
2013-02-05 06:50:00,25.3,20.6,29.06,South,180,3.1,3.1,82,0.00,,---,0.00,VWS V14.01,2013-02-05 12:50:00,
2013-02-05 06:55:00,25.3,20.6,29.06,SSW,202,2.0,3.4,82,0.00,,---,0.00,VWS V14.01,2013-02-05 12:55:00,
2013-02-05 07:00:00,25.3,20.6,29.06,SW,225,4.9,4.9,82,0.00,,---,0.00,VWS V14.01,2013-02-05 13:00:00,
2013-02-05 07:05:00,25.5,20.8,29.06,SSW,202,2.5,2.5,82,0.00,,---,0.00,VWS V14.01,2013-02-05 13:05:00,
2013-02-05 07:10:00,25.5,20.8,29.06,SSW,202,3.8,3.8,82,0.00,,---,0.00,VWS V14.01,2013-02-05 13:10:00,
2013-02-05 07:15:00,25.7,21.0,29.06,SW,225,3.1,3.1,82,0.00,,---,0.00,VWS V14.01,2013-02-05 13:15:00,
2013-02-05 07:20:00,25.7,21.0,29.09,SSW,202,2.7,5.8,82,0.00,,---,0.00,VWS V14.01,2013-02-05 13:20:00,
2013-02-05 07:25:00,25.7,21.0,29.09,SSW,202,5.4,6.0,82,0.00,,---,0.00,VWS V14.01,2013-02-05 13:25:00,
2013-02-05 07:30:00,25.9,21.1,29.09,South,180,3.1,5.4,82,0.00,,---,0.00,VWS V14.01,2013-02-05 13:30:00,
2013-02-05 07:35:00,25.9,21.1,29.09,SSE,158,3.8,5.4,82,0.00,,---,0.00,VWS V14.01,2013-02-05 13:35:00,
2013-02-05 07:40:00,26.1,21.3,29.09,WSW,248,2.7,2.7,82,0.00,,---,0.00,VWS V14.01,2013-02-05 13:40:00,
2013-02-05 07:45:00,26.1,21.3,29.09,SSW,202,4.3,4.3,82,0.00,,---,0.00,VWS V14.01,2013-02-05 13:45:00,
2013-02-05 07:50:00,26.1,21.3,29.09,SW,225,2.5,3.6,82,0.00,,---,0.00,VWS V14.01,2013-02-05 13:50:00,
2013-02-05 07:55:00,26.4,21.7,29.09,SSW,202,2.2,2.7,82,0.00,,---,0.00,VWS V14.01,2013-02-05 13:55:00,
2013-02-05 08:00:00,26.4,21.7,29.06,South,180,2.9,2.9,82,0.00,,---,0.00,VWS V14.01,2013-02-05 14:00:00,
2013-02-05 08:05:00,26.6,21.9,29.06,South,180,3.4,4.7,82,0.00,,---,0.00,VWS V14.01,2013-02-05 14:05:00,
2013-02-05 08:10:00,26.8,22.0,29.06,SW,225,3.6,5.4,82,0.00,,---,0.00,VWS V14.01,2013-02-05 14:10:00,
2013-02-05 08:15:00,27.0,22.2,29.06,SW,225,3.6,3.6,82,0.00,,---,0.00,VWS V14.01,2013-02-05 14:15:00,
2013-02-05 08:20:00,27.0,22.2,29.06,SSW,202,3.1,3.1,82,0.00,,---,0.00,VWS V14.01,2013-02-05 14:20:00,
2013-02-05 08:25:00,27.1,22.4,29.06,SW,225,10.5,10.5,82,0.00,,---,0.00,VWS V14.01,2013-02-05 14:25:00,
2013-02-05 08:30:00,27.1,22.4,29.06,SSW,202,3.8,3.8,82,0.00,,---,0.00,VWS V14.01,2013-02-05 14:30:00,
2013-02-05 08:35:00,27.5,22.7,29.06,South,180,2.5,4.5,82,0.00,,---,0.00,VWS V14.01,2013-02-05 14:35:00,
2013-02-05 08:40:00,27.9,23.1,29.06,SE,135,8.1,8.1,82,0.00,,---,0.00,VWS V14.01,2013-02-05 14:40:00,
2013-02-05 08:45:00,27.9,23.1,29.06,SSW,202,3.4,3.4,82,0.00,,---,0.00,VWS V14.01,2013-02-05 14:45:00,
2013-02-05 08:50:00,27.9,23.1,29.06,South,180,2.7,4.3,82,0.00,,---,0.00,VWS V14.01,2013-02-05 14:50:00,
2013-02-05 08:56:00,27.9,23.1,29.06,South,180,3.1,7.6,82,0.00,,---,0.00,VWS V14.01,2013-02-05 14:56:00,
2013-02-05 09:01:00,28.0,23.3,29.06,SSW,202,5.6,5.6,82,0.00,,---,0.00,VWS V14.01,2013-02-05 15:01:00,
2013-02-05 09:06:00,28.4,23.6,29.06,South,180,3.4,3.4,82,0.00,,---,0.00,VWS V14.01,2013-02-05 15:06:00,
2013-02-05 09:11:00,28.6,23.8,29.06,SSW,202,7.8,7.8,82,0.00,,---,0.00,VWS V14.01,2013-02-05 15:11:00,
2013-02-05 09:16:00,28.6,23.8,29.03,SSW,202,9.6,9.6,82,0.00,,---,0.00,VWS V14.01,2013-02-05 15:16:00,
2013-02-05 09:21:00,28.8,23.7,29.03,South,180,2.0,3.8,81,0.00,,---,0.00,VWS V14.01,2013-02-05 15:21:00,
2013-02-05 09:26:00,29.1,24.3,29.03,South,180,6.3,6.3,82,0.00,,---,0.00,VWS V14.01,2013-02-05 15:26:00,
2013-02-05 09:31:00,29.5,24.4,29.06,SSW,202,4.0,6.3,81,0.00,,---,0.00,VWS V14.01,2013-02-05 15:31:00,
2013-02-05 09:36:00,29.5,24.4,29.06,SSW,202,7.8,7.8,81,0.00,,---,0.00,VWS V14.01,2013-02-05 15:36:00,
2013-02-05 09:41:00,29.5,24.4,29.06,SW,225,6.5,6.5,81,0.00,,---,0.00,VWS V14.01,2013-02-05 15:41:00,
2013-02-05 09:46:00,30.0,24.9,29.06,SW,225,8.5,8.5,81,0.00,,---,0.00,VWS V14.01,2013-02-05 15:46:00,
2013-02-05 09:51:00,30.2,25.1,29.06,South,180,7.6,7.6,81,0.00,,---,0.00,VWS V14.01,2013-02-05 15:51:00,
2013-02-05 09:56:00,30.4,25.3,29.06,SW,225,6.0,6.3,81,0.00,,---,0.00,VWS V14.01,2013-02-05 15:56:00,
2013-02-05 10:01:00,30.6,25.4,29.06,SSW,202,7.8,8.7,81,0.00,,---,0.00,VWS V14.01,2013-02-05 16:01:00,
2013-02-05 10:06:00,30.9,25.8,29.06,SW,225,4.3,7.4,81,0.00,,---,0.00,VWS V14.01,2013-02-05 16:06:00,
2013-02-05 10:11:00,31.3,25.8,29.06,SW,225,5.8,5.8,80,0.00,,---,0.00,VWS V14.01,2013-02-05 16:11:00,
2013-02-05 10:16:00,31.5,26.0,29.03,SSW,202,6.3,6.3,80,0.00,,---,0.00,VWS V14.01,2013-02-05 16:16:00,
2013-02-05 10:22:00,31.8,26.4,29.03,SSW,202,6.0,6.0,80,0.00,,---,0.00,VWS V14.01,2013-02-05 16:22:00,
2013-02-05 10:27:00,31.8,26.4,29.03,SW,225,7.8,8.7,80,0.00,,---,0.00,VWS V14.01,2013-02-05 16:27:00,
2013-02-05 10:32:00,32.2,26.7,29.03,South,180,3.6,3.6,80,0.00,,---,0.00,VWS V14.01,2013-02-05 16:32:00,
2013-02-05 10:37:00,32.4,26.9,29.03,SSW,202,6.0,8.1,80,0.00,,---,0.00,VWS V14.01,2013-02-05 16:37:00,
2013-02-05 10:42:00,32.7,26.9,29.03,SW,225,4.7,12.1,79,0.00,,---,0.00,VWS V14.01,2013-02-05 16:42:00,
2013-02-05 10:47:00,33.1,27.3,29.03,SSW,202,7.4,7.4,79,0.00,,---,0.00,VWS V14.01,2013-02-05 16:47:00,
2013-02-05 10:52:00,33.3,27.5,29.03,SSW,202,12.1,12.1,79,0.00,,---,0.00,VWS V14.01,2013-02-05 16:52:00,
2013-02-05 10:57:00,33.3,27.5,29.03,SSW,202,8.1,8.5,79,0.00,,---,0.00,VWS V14.01,2013-02-05 16:57:00,
2013-02-05 11:02:00,33.8,27.7,29.03,SW,225,3.4,6.0,78,0.00,,---,0.00,VWS V14.01,2013-02-05 17:02:00,
2013-02-05 11:07:00,34.2,28.0,29.03,WNW,292,4.3,12.3,78,0.00,,---,0.00,VWS V14.01,2013-02-05 17:07:00,
2013-02-05 11:12:00,34.5,28.1,29.03,SW,225,3.6,6.0,77,0.00,,---,0.00,VWS V14.01,2013-02-05 17:12:00,
2013-02-05 11:17:00,35.1,28.6,29.03,SW,225,14.8,14.8,77,0.00,,---,0.00,VWS V14.01,2013-02-05 17:17:00,
2013-02-05 11:22:00,35.1,28.3,29.03,SW,225,5.8,9.8,76,0.00,,---,0.00,VWS V14.01,2013-02-05 17:22:00,
2013-02-05 11:27:00,35.4,28.6,29.03,SW,225,12.3,12.3,76,0.00,,---,0.00,VWS V14.01,2013-02-05 17:27:00,
2013-02-05 11:32:00,35.6,28.8,29.03,SW,225,2.9,4.0,76,0.00,,---,0.00,VWS V14.01,2013-02-05 17:32:00,
2013-02-05 11:37:00,36.0,28.8,29.03,West,270,9.6,9.6,75,0.00,,---,0.00,VWS V14.01,2013-02-05 17:37:00,
2013-02-05 11:43:00,35.8,28.3,29.03,SW,225,6.0,10.1,74,0.00,,---,0.00,VWS V14.01,2013-02-05 17:43:00,
2013-02-05 11:48:00,36.1,29.0,29.03,West,270,4.5,4.5,75,0.00,,---,0.00,VWS V14.01,2013-02-05 17:48:00,
2013-02-05 11:53:00,36.0,28.5,29.03,WSW,248,8.5,8.5,74,0.00,,---,0.00,VWS V14.01,2013-02-05 17:53:00,
2013-02-05 11:58:00,35.6,28.1,29.03,WSW,248,9.2,9.6,74,0.00,,---,0.00,VWS V14.01,2013-02-05 17:58:00,
2013-02-05 12:03:00,35.6,28.1,29.03,SW,225,4.9,5.6,74,0.00,,---,0.00,VWS V14.01,2013-02-05 18:03:00,
2013-02-05 12:08:00,36.0,28.5,29.03,SW,225,5.4,5.4,74,0.00,,---,0.00,VWS V14.01,2013-02-05 18:08:00,
2013-02-05 12:13:00,36.5,29.3,29.03,SSW,202,13.2,13.2,75,0.00,,---,0.00,VWS V14.01,2013-02-05 18:13:00,
2013-02-05 12:18:00,36.5,29.3,29.00,SW,225,9.2,9.6,75,0.00,,---,0.00,VWS V14.01,2013-02-05 18:18:00,
2013-02-05 12:23:00,36.9,29.4,29.00,NNW,338,3.8,5.8,74,0.00,,---,0.00,VWS V14.01,2013-02-05 18:23:00,
2013-02-05 12:28:00,37.2,29.7,29.00,North,0,6.5,7.6,74,0.00,,---,0.00,VWS V14.01,2013-02-05 18:28:00,
2013-02-05 12:33:00,37.0,28.9,29.03,West,270,7.6,10.5,72,0.00,,---,0.00,VWS V14.01,2013-02-05 18:33:00,
2013-02-05 12:38:00,37.0,29.2,29.03,SW,225,5.8,5.8,73,0.00,,---,0.00,VWS V14.01,2013-02-05 18:38:00,
2013-02-05 12:43:00,37.0,29.2,29.03,SSW,202,4.9,4.9,73,0.00,,---,0.00,VWS V14.01,2013-02-05 18:43:00,
2013-02-05 12:48:00,37.8,29.6,29.00,West,270,9.6,9.6,72,0.00,,---,0.00,VWS V14.01,2013-02-05 18:48:00,
2013-02-05 12:53:00,37.9,29.4,29.00,West,270,3.4,5.4,71,0.00,,---,0.00,VWS V14.01,2013-02-05 18:53:00,
2013-02-05 12:58:00,38.5,30.6,29.00,WSW,248,3.4,8.7,73,0.00,,---,0.00,VWS V14.01,2013-02-05 18:58:00,
2013-02-05 13:03:00,39.0,30.8,29.03,West,270,6.3,6.3,72,0.00,,---,0.00,VWS V14.01,2013-02-05 19:03:00,
2013-02-05 13:08:00,38.8,30.3,29.03,West,270,5.8,5.8,71,0.00,,---,0.00,VWS V14.01,2013-02-05 19:08:00,
2013-02-05 13:13:00,39.2,29.9,29.03,North,0,9.8,9.8,69,0.00,,---,0.00,VWS V14.01,2013-02-05 19:13:00,
2013-02-05 13:19:00,39.2,29.9,29.03,SW,225,10.5,10.5,69,0.00,,---,0.00,VWS V14.01,2013-02-05 19:19:00,
2013-02-05 13:24:00,39.2,29.5,29.03,West,270,4.7,4.7,68,0.00,,---,0.00,VWS V14.01,2013-02-05 19:24:00,
2013-02-05 13:29:00,39.6,30.2,29.03,West,270,11.2,11.2,69,0.00,,---,0.00,VWS V14.01,2013-02-05 19:29:00,
2013-02-05 13:34:00,39.6,30.2,29.03,West,270,3.6,7.6,69,0.00,,---,0.00,VWS V14.01,2013-02-05 19:34:00,
2013-02-05 13:39:00,39.6,29.9,29.03,WSW,248,8.7,8.7,68,0.00,,---,0.00,VWS V14.01,2013-02-05 19:39:00,
2013-02-05 13:44:00,39.6,29.9,29.03,West,270,4.0,4.0,68,0.00,,---,0.00,VWS V14.01,2013-02-05 19:44:00,
2013-02-05 13:49:00,39.6,29.1,29.03,WSW,248,5.4,6.5,66,0.00,,---,0.00,VWS V14.01,2013-02-05 19:49:00,
2013-02-05 13:54:00,39.6,29.9,29.03,West,270,8.7,8.7,68,0.00,,---,0.00,VWS V14.01,2013-02-05 19:54:00,
2013-02-05 13:59:00,39.6,29.9,29.03,West,270,6.9,8.7,68,0.00,,---,0.00,VWS V14.01,2013-02-05 19:59:00,
2013-02-05 14:04:00,39.9,30.2,29.03,West,270,9.2,9.2,68,0.00,,---,0.00,VWS V14.01,2013-02-05 20:04:00,
2013-02-05 14:09:00,40.3,30.2,29.03,West,270,10.1,10.1,67,0.00,,---,0.00,VWS V14.01,2013-02-05 20:09:00,
2013-02-05 14:14:00,40.3,30.2,29.03,SW,225,7.2,7.2,67,0.00,,---,0.00,VWS V14.01,2013-02-05 20:14:00,
2013-02-05 14:19:00,40.3,30.2,29.03,West,270,8.1,8.1,67,0.00,,---,0.00,VWS V14.01,2013-02-05 20:19:00,
2013-02-05 14:24:00,40.5,30.8,29.03,NW,315,8.1,8.1,68,0.00,,---,0.00,VWS V14.01,2013-02-05 20:24:00,
2013-02-05 14:29:00,40.6,30.2,29.03,WSW,248,6.5,6.5,66,0.00,,---,0.00,VWS V14.01,2013-02-05 20:29:00,
2013-02-05 14:34:00,40.6,30.5,29.03,West,270,9.6,9.6,67,0.00,,---,0.00,VWS V14.01,2013-02-05 20:34:00,
2013-02-05 14:39:00,41.2,30.3,29.03,West,270,9.8,10.3,65,0.00,,---,0.00,VWS V14.01,2013-02-05 20:39:00,
2013-02-05 14:44:00,41.5,31.0,29.03,West,270,6.3,7.4,66,0.00,,---,0.00,VWS V14.01,2013-02-05 20:44:00,
2013-02-05 14:49:00,41.4,31.2,29.03,West,270,6.0,8.5,67,0.00,,---,0.00,VWS V14.01,2013-02-05 20:49:00,
2013-02-05 14:54:00,41.2,31.1,29.03,WNW,292,8.1,8.1,67,0.00,,---,0.00,VWS V14.01,2013-02-05 20:54:00,
2013-02-05 14:59:00,41.0,30.9,29.03,West,270,5.8,8.1,67,0.00,,---,0.00,VWS V14.01,2013-02-05 20:59:00,
2013-02-05 15:04:00,40.5,30.0,29.06,WSW,248,7.8,12.1,66,0.00,,---,0.00,VWS V14.01,2013-02-05 21:04:00,
2013-02-05 15:09:00,40.5,30.4,29.06,West,270,5.6,6.5,67,0.00,,---,0.00,VWS V14.01,2013-02-05 21:09:00,
2013-02-05 15:14:00,40.3,30.2,29.06,West,270,2.2,5.6,67,0.00,,---,0.00,VWS V14.01,2013-02-05 21:14:00,
2013-02-05 15:19:00,40.3,30.2,29.06,West,270,4.9,4.9,67,0.00,,---,0.00,VWS V14.01,2013-02-05 21:19:00,
2013-02-05 15:24:00,40.1,30.0,29.06,West,270,8.1,9.6,67,0.00,,---,0.00,VWS V14.01,2013-02-05 21:24:00,
2013-02-05 15:29:00,40.1,30.0,29.06,SW,225,8.1,8.1,67,0.00,,---,0.00,VWS V14.01,2013-02-05 21:29:00,
2013-02-05 15:34:00,40.1,30.4,29.06,NW,315,5.4,5.4,68,0.00,,---,0.00,VWS V14.01,2013-02-05 21:34:00,
2013-02-05 15:39:00,39.9,30.2,29.06,West,270,5.8,6.3,68,0.00,,---,0.00,VWS V14.01,2013-02-05 21:39:00,
2013-02-05 15:44:00,39.9,30.2,29.06,WSW,248,5.8,6.0,68,0.00,,---,0.00,VWS V14.01,2013-02-05 21:44:00,
2013-02-05 15:49:00,39.7,30.1,29.09,WNW,292,5.8,5.8,68,0.00,,---,0.00,VWS V14.01,2013-02-05 21:49:00,
2013-02-05 15:54:00,39.4,29.7,29.09,WNW,292,10.3,10.3,68,0.00,,---,0.00,VWS V14.01,2013-02-05 21:54:00,
2013-02-05 15:59:00,39.2,29.2,29.09,West,270,6.0,6.0,67,0.00,,---,0.00,VWS V14.01,2013-02-05 21:59:00,
2013-02-05 16:04:00,39.2,29.5,29.09,NNW,338,2.9,5.6,68,0.00,,---,0.00,VWS V14.01,2013-02-05 22:04:00,
2013-02-05 16:10:00,39.2,29.9,29.09,NW,315,4.9,4.9,69,0.00,,---,0.00,VWS V14.01,2013-02-05 22:10:00,
2013-02-05 16:15:00,39.0,29.7,29.09,West,270,4.9,6.0,69,0.00,,---,0.00,VWS V14.01,2013-02-05 22:15:00,
2013-02-05 16:20:00,38.8,29.9,29.09,West,270,7.4,7.4,70,0.00,,---,0.00,VWS V14.01,2013-02-05 22:20:00,
2013-02-05 16:25:00,38.8,29.5,29.09,West,270,7.6,7.6,69,0.00,,---,0.00,VWS V14.01,2013-02-05 22:25:00,
2013-02-05 16:30:00,38.7,29.4,29.09,WNW,292,4.0,6.0,69,0.00,,---,0.00,VWS V14.01,2013-02-05 22:30:00,
2013-02-05 16:35:00,38.5,29.2,29.09,West,270,12.5,12.5,69,0.00,,---,0.00,VWS V14.01,2013-02-05 22:35:00,
2013-02-05 16:40:00,38.3,29.0,29.09,WSW,248,3.8,5.8,69,0.00,,---,0.00,VWS V14.01,2013-02-05 22:40:00,
2013-02-05 16:45:00,37.9,28.7,29.09,WSW,248,7.6,7.6,69,0.00,,---,0.00,VWS V14.01,2013-02-05 22:45:00,
2013-02-05 16:50:00,37.6,28.7,29.09,West,270,7.2,7.2,70,0.00,,---,0.00,VWS V14.01,2013-02-05 22:50:00,
2013-02-05 16:55:00,37.6,28.7,29.09,West,270,5.8,6.3,70,0.00,,---,0.00,VWS V14.01,2013-02-05 22:55:00,
2013-02-05 17:00:00,37.2,28.4,29.09,WNW,292,6.5,7.4,70,0.00,,---,0.00,VWS V14.01,2013-02-05 23:00:00,
2013-02-05 17:05:00,37.0,28.5,29.09,West,270,15.7,15.7,71,0.00,,---,0.00,VWS V14.01,2013-02-05 23:05:00,
2013-02-05 17:10:00,36.9,28.4,29.09,NNW,338,11.0,11.0,71,0.00,,---,0.00,VWS V14.01,2013-02-05 23:10:00,
2013-02-05 17:15:00,36.7,28.5,29.12,West,270,6.5,6.5,72,0.00,,---,0.00,VWS V14.01,2013-02-05 23:15:00,
2013-02-05 17:20:00,36.7,28.5,29.12,WSW,248,6.5,8.1,72,0.00,,---,0.00,VWS V14.01,2013-02-05 23:20:00,
2013-02-05 17:25:00,36.7,28.5,29.12,NNW,338,4.7,7.6,72,0.00,,---,0.00,VWS V14.01,2013-02-05 23:25:00,
2013-02-05 17:30:00,36.7,28.5,29.12,WNW,292,4.0,4.3,72,0.00,,---,0.00,VWS V14.01,2013-02-05 23:30:00,
2013-02-05 17:35:00,36.7,28.5,29.12,WNW,292,7.2,7.2,72,0.00,,---,0.00,VWS V14.01,2013-02-05 23:35:00,
2013-02-05 17:40:00,36.5,28.4,29.12,WNW,292,7.2,7.2,72,0.00,,---,0.00,VWS V14.01,2013-02-05 23:40:00,
2013-02-05 17:45:00,36.5,28.7,29.12,WNW,292,6.0,10.3,73,0.00,,---,0.00,VWS V14.01,2013-02-05 23:45:00,
2013-02-05 17:50:00,36.3,28.2,29.12,WNW,292,13.4,13.4,72,0.00,,---,0.00,VWS V14.01,2013-02-05 23:50:00,
2013-02-05 17:55:00,36.3,28.2,29.12,West,270,6.5,6.5,72,0.00,,---,0.00,VWS V14.01,2013-02-05 23:55:00,
2013-02-05 18:00:00,36.3,28.2,29.14,West,270,6.3,6.3,72,0.00,,---,0.00,VWS V14.01,2013-02-06 00:00:00,
2013-02-05 18:05:00,36.3,28.2,29.14,NW,315,3.1,4.5,72,0.00,,---,0.00,VWS V14.01,2013-02-06 00:05:00,
2013-02-05 18:10:00,36.1,28.0,29.14,NW,315,4.3,9.6,72,0.00,,---,0.00,VWS V14.01,2013-02-06 00:10:00,
2013-02-05 18:16:00,36.0,27.8,29.14,NNW,338,6.3,11.0,72,0.00,,---,0.00,VWS V14.01,2013-02-06 00:16:00,
2013-02-05 18:21:00,35.8,27.6,29.14,West,270,10.7,10.7,72,0.00,,---,0.00,VWS V14.01,2013-02-06 00:21:00,
2013-02-05 18:26:00,35.8,27.6,29.14,WNW,292,5.6,6.5,72,0.00,,---,0.00,VWS V14.01,2013-02-06 00:26:00,
2013-02-05 18:31:00,35.6,27.5,29.14,North,0,4.0,11.4,72,0.00,,---,0.00,VWS V14.01,2013-02-06 00:31:00,
2013-02-05 18:36:00,35.6,27.8,29.14,NW,315,7.2,7.2,73,0.00,,---,0.00,VWS V14.01,2013-02-06 00:36:00,
2013-02-05 18:41:00,35.6,27.8,29.14,NNW,338,8.7,8.7,73,0.00,,---,0.00,VWS V14.01,2013-02-06 00:41:00,
2013-02-05 18:46:00,35.6,27.8,29.17,NNW,338,7.2,7.2,73,0.00,,---,0.00,VWS V14.01,2013-02-06 00:46:00,
2013-02-05 18:51:00,35.4,27.6,29.17,NNW,338,5.4,5.4,73,0.00,,---,0.00,VWS V14.01,2013-02-06 00:51:00,
2013-02-05 18:56:00,35.4,27.6,29.17,NW,315,2.5,3.4,73,0.00,,---,0.00,VWS V14.01,2013-02-06 00:56:00,
2013-02-05 19:01:00,35.4,27.6,29.17,NW,315,4.3,5.8,73,0.00,,---,0.00,VWS V14.01,2013-02-06 01:01:00,
2013-02-05 19:06:00,35.2,27.5,29.17,NNW,338,3.6,5.6,73,0.00,,---,0.00,VWS V14.01,2013-02-06 01:06:00,
2013-02-05 19:11:00,35.2,27.5,29.17,NW,315,3.6,8.7,73,0.00,,---,0.00,VWS V14.01,2013-02-06 01:11:00,
2013-02-05 19:16:00,35.1,27.3,29.17,NNW,338,4.3,4.3,73,0.00,,---,0.00,VWS V14.01,2013-02-06 01:16:00,
2013-02-05 19:21:00,35.1,27.3,29.17,NNW,338,2.7,4.0,73,0.00,,---,0.00,VWS V14.01,2013-02-06 01:21:00,
2013-02-05 19:26:00,34.9,27.1,29.17,NNW,338,5.8,6.3,73,0.00,,---,0.00,VWS V14.01,2013-02-06 01:26:00,
2013-02-05 19:31:00,34.9,27.1,29.20,WNW,292,4.7,4.7,73,0.00,,---,0.00,VWS V14.01,2013-02-06 01:31:00,
2013-02-05 19:36:00,34.9,27.5,29.20,NW,315,2.5,2.5,74,0.00,,---,0.00,VWS V14.01,2013-02-06 01:36:00,
2013-02-05 19:41:00,34.9,27.5,29.20,West,270,1.6,2.0,74,0.00,,---,0.00,VWS V14.01,2013-02-06 01:41:00,
2013-02-05 19:46:00,34.9,27.5,29.20,NNW,338,3.8,3.8,74,0.00,,---,0.00,VWS V14.01,2013-02-06 01:46:00,
2013-02-05 19:51:00,34.9,27.5,29.20,NW,315,2.7,2.7,74,0.00,,---,0.00,VWS V14.01,2013-02-06 01:51:00,
2013-02-05 19:56:00,34.9,27.5,29.20,NW,315,2.7,2.7,74,0.00,,---,0.00,VWS V14.01,2013-02-06 01:56:00,
2013-02-05 20:01:00,34.9,27.5,29.20,NNW,338,1.3,3.4,74,0.00,,---,0.00,VWS V14.01,2013-02-06 02:01:00,
2013-02-05 20:06:00,34.9,27.5,29.20,WNW,292,1.6,1.6,74,0.00,,---,0.00,VWS V14.01,2013-02-06 02:06:00,
2013-02-05 20:11:00,34.9,27.5,29.20,North,0,2.9,2.9,74,0.00,,---,0.00,VWS V14.01,2013-02-06 02:11:00,
2013-02-05 20:16:00,34.9,27.5,29.20,NW,315,1.6,2.2,74,0.00,,---,0.00,VWS V14.01,2013-02-06 02:16:00,
2013-02-05 20:21:00,34.9,27.5,29.20,NW,315,1.6,1.6,74,0.00,,---,0.00,VWS V14.01,2013-02-06 02:21:00,
2013-02-05 20:26:00,34.9,27.5,29.20,WNW,292,2.7,2.7,74,0.00,,---,0.00,VWS V14.01,2013-02-06 02:26:00,
2013-02-05 20:31:00,34.9,27.5,29.20,NW,315,2.9,2.9,74,0.00,,---,0.00,VWS V14.01,2013-02-06 02:31:00,
2013-02-05 20:36:00,34.9,27.5,29.20,WNW,292,0.0,1.6,74,0.00,,---,0.00,VWS V14.01,2013-02-06 02:36:00,
2013-02-05 20:41:00,34.9,27.5,29.20,NW,315,0.0,0.0,74,0.00,,---,0.00,VWS V14.01,2013-02-06 02:41:00,
2013-02-05 20:46:00,34.9,27.5,29.20,WNW,292,0.0,0.0,74,0.00,,---,0.00,VWS V14.01,2013-02-06 02:46:00,
2013-02-05 20:51:00,34.9,27.5,29.20,West,270,2.0,2.0,74,0.00,,---,0.00,VWS V14.01,2013-02-06 02:51:00,
2013-02-05 20:56:00,34.9,27.5,29.20,West,270,2.0,2.5,74,0.00,,---,0.00,VWS V14.01,2013-02-06 02:56:00,
2013-02-05 21:02:00,34.9,27.5,29.20,West,270,2.5,2.5,74,0.00,,---,0.00,VWS V14.01,2013-02-06 03:02:00,
2013-02-05 21:07:00,34.9,27.5,29.20,West,270,1.3,1.3,74,0.00,,---,0.00,VWS V14.01,2013-02-06 03:07:00,
2013-02-05 21:12:00,34.9,27.5,29.20,West,270,0.0,0.0,74,0.00,,---,0.00,VWS V14.01,2013-02-06 03:12:00,
2013-02-05 21:17:00,34.9,27.5,29.20,West,270,2.7,2.9,74,0.00,,---,0.00,VWS V14.01,2013-02-06 03:17:00,
2013-02-05 21:22:00,34.9,27.5,29.20,West,270,0.0,0.0,74,0.00,,---,0.00,VWS V14.01,2013-02-06 03:22:00,
2013-02-05 21:27:00,34.9,27.5,29.20,West,270,1.1,1.1,74,0.00,,---,0.00,VWS V14.01,2013-02-06 03:27:00,
2013-02-05 21:32:00,34.9,27.5,29.23,West,270,0.0,1.1,74,0.00,,---,0.00,VWS V14.01,2013-02-06 03:32:00,
2013-02-05 21:37:00,34.9,27.5,29.23,WNW,292,1.1,2.9,74,0.00,,---,0.00,VWS V14.01,2013-02-06 03:37:00,
2013-02-05 21:42:00,34.9,27.5,29.23,WNW,292,0.0,2.0,74,0.00,,---,0.00,VWS V14.01,2013-02-06 03:42:00,
2013-02-05 21:47:00,34.9,27.5,29.23,WNW,292,1.3,1.3,74,0.00,,---,0.00,VWS V14.01,2013-02-06 03:47:00,
2013-02-05 21:52:00,34.9,27.5,29.23,WNW,292,0.0,0.0,74,0.00,,---,0.00,VWS V14.01,2013-02-06 03:52:00,
2013-02-05 21:57:00,34.9,27.5,29.23,WNW,292,0.0,2.0,74,0.00,,---,0.00,VWS V14.01,2013-02-06 03:57:00,
2013-02-05 22:02:00,34.9,27.5,29.23,WNW,292,0.0,0.0,74,0.00,,---,0.00,VWS V14.01,2013-02-06 04:02:00,
2013-02-05 22:07:00,35.1,28.0,29.23,WNW,292,0.0,0.0,75,0.00,,---,0.00,VWS V14.01,2013-02-06 04:07:00,
2013-02-05 22:12:00,35.1,28.0,29.23,WNW,292,0.0,0.0,75,0.00,,---,0.00,VWS V14.01,2013-02-06 04:12:00,
2013-02-05 22:17:00,35.1,28.0,29.23,West,270,0.9,2.7,75,0.00,,---,0.00,VWS V14.01,2013-02-06 04:17:00,
2013-02-05 22:22:00,35.1,28.0,29.23,West,270,0.0,0.0,75,0.00,,---,0.00,VWS V14.01,2013-02-06 04:22:00,
2013-02-05 22:27:00,35.1,28.0,29.23,WNW,292,2.0,2.0,75,0.00,,---,0.00,VWS V14.01,2013-02-06 04:27:00,
2013-02-05 22:32:00,35.1,28.0,29.23,NW,315,1.6,1.6,75,0.00,,---,0.00,VWS V14.01,2013-02-06 04:32:00,
2013-02-05 22:37:00,35.1,28.0,29.23,NW,315,2.7,2.7,75,0.00,,---,0.00,VWS V14.01,2013-02-06 04:37:00,
2013-02-05 22:42:00,35.1,28.0,29.23,WNW,292,2.5,2.5,75,0.00,,---,0.00,VWS V14.01,2013-02-06 04:42:00,
2013-02-05 22:47:00,35.1,28.0,29.26,NW,315,2.7,2.9,75,0.00,,---,0.00,VWS V14.01,2013-02-06 04:47:00,
2013-02-05 22:52:00,34.9,27.8,29.26,NW,315,1.1,1.3,75,0.00,,---,0.00,VWS V14.01,2013-02-06 04:52:00,
2013-02-05 22:57:00,34.9,27.8,29.26,NNW,338,2.5,2.5,75,0.00,,---,0.00,VWS V14.01,2013-02-06 04:57:00,
2013-02-05 23:00:00,34.9,27.8,29.26,NNW,338,3.4,3.4,75,0.00,,---,0.00,VWS V14.01,2013-02-06 05:00:00,
2013-02-05 23:01:00,34.9,27.8,29.26,NNW,338,0.9,3.4,75,0.00,,---,0.00,VWS V14.01,2013-02-06 05:01:00,
2013-02-05 23:06:00,34.9,27.8,29.26,NNW,338,2.7,2.7,75,0.00,,---,0.00,VWS V14.01,2013-02-06 05:06:00,
2013-02-05 23:11:00,34.9,27.5,29.26,NW,315,4.7,4.7,74,0.00,,---,0.00,VWS V14.01,2013-02-06 05:11:00,
2013-02-05 23:16:00,34.5,27.1,29.26,NW,315,1.3,3.8,74,0.00,,---,0.00,VWS V14.01,2013-02-06 05:16:00,
2013-02-05 23:21:00,34.5,27.1,29.26,North,0,3.1,3.1,74,0.00,,---,0.00,VWS V14.01,2013-02-06 05:21:00,
2013-02-05 23:26:00,34.3,26.9,29.26,NW,315,1.6,1.6,74,0.00,,---,0.00,VWS V14.01,2013-02-06 05:26:00,
2013-02-05 23:31:00,34.2,26.4,29.26,NNW,338,2.2,2.2,73,0.00,,---,0.00,VWS V14.01,2013-02-06 05:31:00,
2013-02-05 23:37:00,34.0,26.2,29.26,NW,315,2.7,3.4,73,0.00,,---,0.00,VWS V14.01,2013-02-06 05:37:00,
2013-02-05 23:42:00,34.0,26.2,29.26,North,0,2.7,2.9,73,0.00,,---,0.00,VWS V14.01,2013-02-06 05:42:00,
2013-02-05 23:47:00,33.8,26.1,29.26,NW,315,2.2,2.2,73,0.00,,---,0.00,VWS V14.01,2013-02-06 05:47:00,
2013-02-05 23:52:00,33.6,25.9,29.26,NW,315,2.0,2.0,73,0.00,,---,0.00,VWS V14.01,2013-02-06 05:52:00,
2013-02-05 23:57:00,33.8,26.1,29.26,North,0,2.0,2.2,73,0.00,,---,0.00,VWS V14.01,2013-02-06 05:57:00,